Change the Weather History Date:

Thursday, February 2, 2012

  Actual Average Record
Temperature  
Mean Temperature 36 °F 31 °F  
Max Temperature 43 °F 44 °F 74 °F (1934)
Min Temperature 28 °F 17 °F -18 °F (2007)
Degree Days  
Heating Degree Days 29 34  
Month to date heating degree days 57 68  
Since 1 July heating degree days 3382 3599  
Cooling Degree Days 0 0  
Month to date cooling degree days 0 0  
Year to date cooling degree days 0 0  
Moisture  
Dew Point 21 °F    
Average Humidity 61    
Maximum Humidity 92    
Minimum Humidity 30    
Precipitation  
Precipitation 0.21 in 0.01 in 0.22 in (1923)
Month to date precipitation 0.21 0.02  
Year to date precipitation 0.47 0.43  
Snow  
Snow 1.50 in - - ()
Month to date snowfall 1.5  
Since 1 July snowfall 35.9  
Snow Depth 0.00 in    
Sea Level Pressure  
Sea Level Pressure 29.98 in    
Wind  
Wind Speed 9 mph (North)    
Max Wind Speed 17 mph    
Max Gust Speed 21 mph    
Visibility 6 miles    
Events Fog , Snow    
T = Trace of Precipitation, MM = Missing Value Source: NWS Daily Summary

Daily Weather History Graph

Daily Weather History Graph

Search for Another Location

Airport or City:

Trip Planner

Search our weather history database for the weather conditions in past years. The results will help you decide how hot, cold, wet, or windy it might be!

Date:

Astronomy

Feb. 02, 2012 Rise Set
Actual Time 7:06 AM MST 5:18 PM MST
Civil Twilight 6:37 AM MST 5:47 PM MST
Nautical Twilight 6:05 AM MST 6:19 PM MST
Astronomical Twilight 5:33 AM MST 6:51 PM MST
Moon 12:32 PM MST (2/2) 2:50 AM MST (2/2)
Length of Visible Light 11h 09m
Length of Day
10h 12m
Waxing Gibbous, 74% of the Moon is Illuminated
Feb 2
Waxing Gibbous
Feb 7
Full
Feb 14
Last Quarter
Feb 21
New
Feb 29
First Quarter

Hourly Weather History & Observations

Time (MST) Temp. Windchill Dew Point Humidity Pressure Visibility Wind Dir Wind Speed Gust Speed Precip Events Conditions
12:53 AM 35.1 °F 28.6 °F 12.9 °F 40% 29.98 in 10.0 mi SE 8.1 mph - N/A   Overcast
1:53 AM 36.0 °F 28.5 °F 14.0 °F 41% 29.96 in 10.0 mi SSE 10.4 mph - N/A   Overcast
2:53 AM 34.0 °F - 12.9 °F 42% 29.94 in 10.0 mi Calm Calm - N/A   Overcast
3:53 AM 30.9 °F 23.5 °F 14.0 °F 50% 29.94 in 10.0 mi NW 8.1 mph - N/A   Overcast
4:53 AM 28.9 °F 18.6 °F 14.0 °F 54% 29.98 in 10.0 mi West 12.7 mph - N/A   Overcast
5:53 AM 30.0 °F 23.2 °F 12.9 °F 49% 29.98 in 10.0 mi West 6.9 mph - N/A   Mostly Cloudy
6:53 AM 30.0 °F 24.1 °F 12.9 °F 49% 30.00 in 10.0 mi WSW 5.8 mph - N/A   Mostly Cloudy
7:53 AM 30.9 °F 22.2 °F 12.0 °F 46% 30.01 in 10.0 mi WNW 10.4 mph - N/A   Mostly Cloudy
8:53 AM 32.0 °F 23.6 °F 12.9 °F 45% 30.00 in 10.0 mi West 10.4 mph - N/A   Overcast
9:53 AM 35.1 °F 27.4 °F 12.9 °F 40% 29.97 in 10.0 mi West 10.4 mph - N/A   Overcast
10:53 AM 39.0 °F 31.4 °F 14.0 °F 36% 29.96 in 10.0 mi West 12.7 mph - N/A   Mostly Cloudy
11:53 AM 41.0 °F 34.3 °F 12.9 °F 32% 29.90 in 10.0 mi NNW 11.5 mph - N/A   Mostly Cloudy
12:53 PM 42.1 °F 37.1 °F 14.0 °F 32% 29.88 in 10.0 mi North 8.1 mph - N/A   Mostly Cloudy
1:53 PM 41.0 °F 35.2 °F 12.9 °F 32% 29.88 in 10.0 mi NE 9.2 mph - N/A   Overcast
2:53 PM 41.0 °F 34.7 °F 12.9 °F 32% 29.87 in 10.0 mi North 10.4 mph - N/A   Overcast
3:53 PM 39.9 °F 36.7 °F 12.9 °F 33% 29.91 in 10.0 mi NE 4.6 mph - N/A   Overcast
4:53 PM 37.0 °F 29.3 °F 19.9 °F 50% 29.95 in 10.0 mi ENE 11.5 mph - N/A   Overcast
5:53 PM 33.1 °F 26.1 °F 26.1 °F 75% 29.99 in 4.0 mi East 8.1 mph - 0.00 in Snow Light Snow
6:16 PM 30.2 °F 25.4 °F 28.4 °F 93% 29.98 in 2.5 mi ENE 4.6 mph - 0.00 in Snow Light Snow
6:44 PM 30.2 °F 25.4 °F 28.4 °F 93% 29.99 in 3.0 mi NE 4.6 mph - 0.01 in Snow Light Snow
6:53 PM 30.9 °F 26.2 °F 28.9 °F 92% 30.03 in 3.0 mi NNE 4.6 mph - 0.01 in Snow Light Snow
7:14 PM 30.2 °F 26.7 °F 28.4 °F 93% 30.00 in 2.0 mi NNE 3.5 mph - 0.00 in Snow Light Snow
7:17 PM 30.2 °F 26.7 °F 28.4 °F 93% 30.00 in 0.8 mi North 3.5 mph - 0.01 in Snow Light Snow
7:26 PM 30.2 °F 23.4 °F 28.4 °F 93% 30.00 in 0.8 mi North 6.9 mph - 0.01 in Snow Light Snow
7:53 PM 30.9 °F 24.3 °F 28.9 °F 92% 30.05 in 0.8 mi North 6.9 mph - 0.03 in Snow Light Snow
8:04 PM 30.2 °F 22.6 °F 28.4 °F 93% 30.01 in 2.0 mi North 8.1 mph - 0.00 in Snow Light Snow
8:14 PM 30.2 °F 22.6 °F 28.4 °F 93% 30.01 in 1.8 mi NNW 8.1 mph - 0.01 in Snow Light Snow
8:43 PM 30.2 °F 20.2 °F 28.4 °F 93% 30.01 in 0.8 mi NNW 12.7 mph - 0.03 in Snow Light Snow
8:53 PM 30.9 °F 19.4 °F 28.9 °F 92% 30.04 in 0.8 mi NNW 17.3 mph - 0.04 in Snow Light Snow
9:53 PM 30.0 °F 19.1 °F 28.9 °F 96% 30.03 in 0.8 mi North 15.0 mph - 0.06 in Snow Light Snow
10:53 PM 30.9 °F 21.7 °F 28.9 °F 92% 30.03 in 0.5 mi NNE 11.5 mph - 0.04 in Fog , Snow Snow
11:53 PM 30.9 °F 21.2 °F 28.9 °F 92% 30.04 in 0.5 mi North 12.7 mph - 0.03 in Fog , Snow Snow